E-STAR
1 38079U 12006C   12285.72383750  .00049414  00000-0  11872-2 0  5662
2 38079 069.4773 047.8423 0704377 099.9667 268.1603 14.23649968 34114
GOLIAT
1 38085U 12006J   12285.73218347  .00049771  00000-0  12049-2 0  5336
2 38085 069.4832 048.5308 0709329 100.4081 267.7693 14.22440169 34099
HORYU-2
1 38340U 12025D   12285.82757397  .00001646  00000-0  28108-3 0  1906
2 38340 098.1852 225.8847 0012393 326.2977 033.7458 14.70257183 21611
RS-40
1 38736U 12041D   12285.56721265  .00000010  00000-0  00000 0 0   774
2 38736 082.4771 310.1484 0019485 147.0477 213.1821 12.42646795  9368
PROITERES
1 38756U 12047B   12285.87837604  .00000812  00000-0  13175-3 0  1199
2 38756 098.2815 352.0513 0013262 171.6518 188.4915 14.73908261  4816
AENEAS
1 38760U 0        12285.63418111  .00004663  00000-0  43425-3 0 00392
2 38760 064.6742 315.7090 0218665 281.5750 225.8995 14.79105703004085
OBJECT D
1 38761U 0        12285.63398458  .00003082  00000-0  29125-3 0 00344
2 38761 064.6739 315.6908 0219640 281.6033 237.4379 14.79182964004087
OBJECT E
1 38762U 0        12285.63371359  .00003677  00000-0  34386-3 0 00341
2 38762 064.6748 315.6866 0219416 281.3263 240.4842 14.79239544004080
OBJECT F
1 38763U 0        12285.63372642  .00003045  00000-0  28749-3 0 00321
2 38763 064.6740 315.6834 0219648 281.5472 242.2846 14.79241291003927
OBJECT G
1 38764U 0        12285.63331274  .00002834  00000-0  26880-3 0 00327
2 38764 064.6733 315.6795 0219569 281.6381 240.8814 14.79251868004086
OBJECT H
1 38765U 0        12285.63079299  .00003771  00000-0  35169-3 0 00370
2 38765 064.6737 315.6833 0219324 281.5901 230.2625 14.79307956004083
OBJECT J
1 38766U 0        12285.62829259  .00003206  00000-0  30075-3 0 00306
2 38766 064.6721 315.6698 0219494 281.5491 228.0895 14.79395065004080
1998067CN
1 38852U 98067CN  12284.94161481  .00034078  00000-0  56652-3 0 00087
2 38852 051.6480 266.2171 0019250 144.9617 215.2645 15.51537498000919
1998067CP
1 38853U 98067CP  12284.94147275  .00040671  00000-0  67425-3 0 00078
2 38853 051.6475 266.2191 0014925 157.2300 202.9281 15.51613332000973
1998067CQ
1 38854U 98067CQ  12284.87666330  .00052033  00000-0  85465-3 0 00067
2 38854 051.6479 266.5332 0014399 152.6575 207.5187 15.51770880000963
1998067CR
1 38855U 98067CR  12284.94118099  .00049463  00000-0  81414-3 0 00085
2 38855 051.6493 266.2168 0014236 155.7883 204.3806 15.51737119000860
/EX




More information about the Keps mailing list